Location: Demre
(36.2444°N, 29.9850°E)
Time: 06:11:21
(UTC+00:00)

Hubble Space Telescope - Pass Details

Date: 11 March 2026
Orbit: 474 x 477 km, 28.5° (Epoch: 21 April)

Event Time Altitude Azimuth Distance (km) Brightness Sun altitude
Rises 17:11:55 0° 238° (WSW) 2,504 5.1 -14.5°
Reaches altitude 10° 17:14:28 10° 222° (SW) 1,627 3.7 -15.0°
Maximum altitude 17:17:21 21° 171° (S) 1,102 2.2 -15.6°
Enters shadow 17:18:17 19° 150° (SSE) 1,169 2.1 -15.8°
